Weather History for Moriarty, NM

Change the Weather History Date:

Wednesday, October 3, 2012

  Actual Average (KABQ) Record (KABQ)
Temperature  
Mean Temperature 58 °F 63 °F  
Max Temperature 83 °F 74 °F 88 °F (1979)
Min Temperature 34 °F 51 °F 34 °F (1893)
Degree Days  
Heating Degree Days 6 3  
Month to date heating degree days 9  
Since 1 July heating degree days 35  
Cooling Degree Days 0 1  
Month to date cooling degree days 3  
Year to date cooling degree days 1315  
Growing Degree Days 8 (Base 50)    
Moisture  
Dew Point 24 °F    
Average Humidity 34    
Maximum Humidity 77    
Minimum Humidity 10    
Precipitation  
Precipitation 0.00 in 0.04 in 0.78 in (1984)
Month to date precipitation 0.13  
Year to date precipitation 7.49  
Snow  
Snow 0.00 in - - ()
Month to date snowfall  
Since 1 July snowfall  
Since 1 September snowfall  
Snow Depth -    
Sea Level Pressure  
Sea Level Pressure 30.12 in    
Wind  
Wind Speed 6 mph (NW)    
Max Wind Speed 24 mph    
Max Gust Speed 34 mph    
Visibility 10 miles    
Events      
T = Trace of Precipitation, MM = Missing Value Source: NWS Daily Summary

Daily Weather History Graph

Daily Weather History Graph

Search for Another Location

Airport:

Trip Planner

Search our weather history database for the weather conditions in past years. The results will help you decide how hot, cold, wet, or windy it might be!

Date:

Astronomy

Oct. 03, 2012 Rise Set
Actual Time 7:00 AM MDT 6:44 PM MDT
Civil Twilight 6:35 AM MDT 7:09 PM MDT
Nautical Twilight 6:06 AM MDT 7:38 PM MDT
Astronomical Twilight 5:36 AM MDT 8:08 PM MDT
Moon 8:48 PM MDT (10/3) 10:17 AM MDT (10/3)
Length of Visible Light 12h 34m
Length of Day
11h 43m
Waning Gibbous, 88% of the Moon is Illuminated
Oct 3
Waning Gibbous
Oct 8
Last Quarter
Oct 15
New
Oct 21
First Quarter
Oct 29
Full

Hourly Weather History & Observations

Time (MDT) Temp. Windchill Dew Point Humidity Pressure Visibility Wind Dir Wind Speed Gust Speed Precip Events Conditions
12:15 AM 46.8 °F - 27.3 °F 47% 30.10 in 10.0 mi ENE 3.5 mph - N/A   Clear
12:35 AM 48.2 °F - 25.5 °F 41% 30.10 in 10.0 mi ESE 3.5 mph - N/A   Clear
12:55 AM 44.1 °F - 27.1 °F 51% 30.10 in 10.0 mi Calm Calm - N/A   Clear
1:15 AM 44.2 °F - 27.1 °F 51% 30.10 in 10.0 mi Calm Calm - N/A   Clear
1:35 AM 41.0 °F 39.0 °F 27.5 °F 59% 30.10 in 10.0 mi NNE 3.5 mph - N/A   Clear
1:55 AM 41.4 °F 39.4 °F 28.8 °F 61% 30.10 in 10.0 mi ENE 3.5 mph - N/A   Clear
2:15 AM 41.4 °F - 28.8 °F 61% 30.10 in 10.0 mi Calm Calm - N/A   Clear
2:35 AM 41.9 °F 40.0 °F 27.9 °F 58% 30.10 in 10.0 mi NNW 3.5 mph - N/A   Clear
2:55 AM 37.6 °F 35.1 °F 27.5 °F 67% 30.09 in 10.0 mi North 3.5 mph - N/A   Clear
3:15 AM 38.5 °F 35.0 °F 27.9 °F 66% 30.10 in 10.0 mi NNE 4.6 mph - N/A   Clear
3:35 AM 38.5 °F 35.0 °F 28.8 °F 68% 30.10 in 10.0 mi NNE 4.6 mph - N/A   Clear
3:55 AM 39.4 °F 36.1 °F 28.4 °F 65% 30.10 in 10.0 mi North 4.6 mph - N/A   Clear
4:15 AM 39.2 °F 37.0 °F 27.5 °F 63% 30.10 in 10.0 mi NNE 3.5 mph - N/A   Clear
4:35 AM 38.8 °F - 26.4 °F 61% 30.10 in 10.0 mi Calm Calm - N/A   Clear
4:55 AM 36.3 °F 33.7 °F 26.6 °F 68% 30.10 in 10.0 mi NNE 3.5 mph - N/A   Clear
5:15 AM 36.1 °F - 26.6 °F 68% 30.10 in 10.0 mi Calm Calm - N/A   Clear
5:35 AM 36.3 °F - 27.0 °F 69% 30.11 in 10.0 mi Calm Calm - N/A   Clear
5:55 AM 35.8 °F - 26.4 °F 69% 30.11 in 10.0 mi Calm Calm - N/A   Clear
6:15 AM 35.1 °F - 26.6 °F 71% 30.12 in 10.0 mi Calm Calm - N/A   Clear
6:35 AM 34.5 °F 31.6 °F 27.7 °F 76% 30.11 in 10.0 mi NNE 3.5 mph - N/A   Clear
6:55 AM 34.7 °F 31.8 °F 27.5 °F 75% 30.12 in 10.0 mi North 3.5 mph - N/A   Clear
7:15 AM 35.8 °F 33.0 °F 29.1 °F 77% 30.12 in 10.0 mi ENE 3.5 mph - N/A   Clear
7:35 AM 37.8 °F - 30.2 °F 74% 30.12 in 10.0 mi Calm Calm - N/A   Clear
7:55 AM 42.1 °F - 30.6 °F 64% 30.13 in 10.0 mi Calm Calm - N/A   Clear
8:15 AM 46.8 °F - 31.5 °F 55% 30.14 in 10.0 mi Calm Calm - N/A   Clear
8:35 AM 52.7 °F - 31.5 °F 44% 30.14 in 10.0 mi East 3.5 mph - N/A   Clear
8:55 AM 59.9 °F - 26.8 °F 28% 30.14 in 10.0 mi East 4.6 mph - N/A   Clear
9:15 AM 63.0 °F - 27.1 °F 26% 30.15 in 10.0 mi ENE 3.5 mph - N/A   Clear
9:35 AM 66.6 °F - 27.1 °F 23% 30.15 in 10.0 mi East 3.5 mph - N/A   Clear
9:55 AM 68.0 °F - 26.6 °F 21% 30.15 in 10.0 mi Calm Calm - N/A   Clear
10:15 AM 69.8 °F - 26.2 °F 20% 30.15 in 10.0 mi ENE 3.5 mph - N/A   Clear
10:35 AM 72.0 °F - 26.2 °F 18% 30.14 in 10.0 mi NNW 4.6 mph - N/A   Clear
10:55 AM 75.4 °F - 24.8 °F 15% 30.14 in 10.0 mi WNW 10.4 mph 19.6 mph N/A   Clear
11:15 AM 79.5 °F - 23.2 °F 12% 30.14 in 10.0 mi WNW 12.7 mph - N/A   Clear
11:35 AM 80.1 °F - 23.2 °F 12% 30.14 in 10.0 mi WNW 12.7 mph 20.7 mph N/A   Clear
11:55 AM 80.1 °F - 23.0 °F 12% 30.14 in 10.0 mi NNW 18.4 mph 26.5 mph N/A   Clear
12:15 PM 80.1 °F - 23.0 °F 12% 30.13 in 10.0 mi NW 20.7 mph 26.5 mph N/A   Clear
12:35 PM 81.3 °F - 22.8 °F 12% 30.12 in 10.0 mi NW 20.7 mph 34.5 mph N/A   Clear
12:55 PM 81.7 °F - 22.3 °F 11% 30.11 in 10.0 mi NW 23.0 mph 31.1 mph N/A   Clear
1:15 PM 81.9 °F - 22.1 °F 11% 30.11 in 10.0 mi WNW 17.3 mph 34.5 mph N/A   Clear
1:35 PM 82.6 °F - 22.5 °F 11% 30.10 in 10.0 mi WNW 24.2 mph 34.5 mph N/A   Clear
1:55 PM 82.6 °F - 21.2 °F 10% 30.10 in 10.0 mi WNW 24.2 mph 31.1 mph N/A   Clear
2:15 PM 82.4 °F - 22.3 °F 11% 30.10 in 10.0 mi West 12.7 mph 28.8 mph N/A   Clear
2:35 PM 82.4 °F - 22.3 °F 11% 30.10 in 10.0 mi WNW 21.9 mph 26.5 mph N/A   Clear
2:55 PM 82.8 °F - 22.5 °F 11% 30.10 in 10.0 mi West 20.7 mph 27.6 mph N/A   Clear
3:15 PM 83.1 °F - 22.1 °F 11% 30.09 in 10.0 mi WNW 19.6 mph 25.3 mph N/A   Clear
3:35 PM 83.1 °F - 22.1 °F 11% 30.09 in 10.0 mi WNW 18.4 mph 29.9 mph N/A   Clear
3:55 PM 82.9 °F - 22.6 °F 11% 30.09 in 10.0 mi West 16.1 mph 25.3 mph N/A   Clear
4:15 PM 83.7 °F - 20.5 °F 10% 30.08 in 10.0 mi West 21.9 mph 26.5 mph N/A   Clear
4:35 PM 83.1 °F - 19.6 °F 10% 30.08 in 10.0 mi WNW 21.9 mph 31.1 mph N/A   Clear
4:55 PM 82.6 °F - 19.2 °F 10% 30.09 in 10.0 mi WNW 21.9 mph 32.2 mph N/A   Clear
5:15 PM 81.7 °F - 19.2 °F 10% 30.09 in 10.0 mi WNW 24.2 mph 32.2 mph N/A   Clear
5:35 PM 80.8 °F - 19.9 °F 10% 30.10 in 10.0 mi West 18.4 mph 25.3 mph N/A   Clear
5:55 PM 79.9 °F - 19.4 °F 11% 30.10 in 10.0 mi WNW 17.3 mph 26.5 mph N/A   Clear
6:15 PM 77.4 °F - 20.8 °F 12% 30.10 in 10.0 mi NW 15.0 mph 21.9 mph N/A   Clear
6:35 PM 74.7 °F - 20.3 °F 13% 30.11 in 10.0 mi WNW 12.7 mph - N/A   Clear
6:55 PM 72.0 °F - 19.8 °F 14% 30.11 in 10.0 mi WNW 9.2 mph - N/A   Clear
7:15 PM 68.9 °F - 19.4 °F 15% 30.11 in 10.0 mi WNW 9.2 mph - N/A   Clear
7:35 PM 66.7 °F - 19.2 °F 16% 30.12 in 10.0 mi WNW 9.2 mph - N/A   Clear
7:55 PM 68.5 °F - 19.4 °F 15% 30.13 in 10.0 mi West 9.2 mph - N/A   Clear
8:15 PM 66.4 °F - 19.0 °F 16% 30.13 in 10.0 mi West 8.1 mph - N/A   Clear
8:35 PM 61.2 °F - 20.8 °F 21% 30.14 in 10.0 mi WSW 9.2 mph - N/A   Clear
8:55 PM 59.7 °F - 21.4 °F 23% 30.14 in 10.0 mi WSW 9.2 mph - N/A   Clear
9:15 PM 57.4 °F - 21.7 °F 25% 30.14 in 10.0 mi WSW 10.4 mph - N/A   Clear
9:35 PM 57.2 °F - 21.6 °F 25% 30.15 in 10.0 mi West 10.4 mph - N/A   Clear
9:55 PM 57.9 °F - 22.5 °F 25% 30.16 in 10.0 mi NE 4.6 mph - N/A   Clear
10:15 PM 57.6 °F - 22.1 °F 25% 30.16 in 10.0 mi Calm Calm - N/A   Clear
10:35 PM 53.4 °F - 23.2 °F 31% 30.17 in 10.0 mi Calm Calm - N/A   Clear
10:55 PM 50.2 °F - 23.0 °F 35% 30.18 in 10.0 mi NNE 5.8 mph - N/A   Clear
11:15 PM 51.4 °F - 23.0 °F 33% 30.18 in 10.0 mi Calm Calm - N/A   Clear
11:35 PM 47.7 °F - 23.4 °F 38% 30.19 in 10.0 mi NNE 3.5 mph - N/A   Clear
11:55 PM 53.1 °F - 23.0 °F 31% 30.19 in 10.0 mi NNE 3.5 mph - N/A   Clear